Regional Weather Roundup
Issued by NWS

Home | Current Version | Previous Version | Graphics & Text | Print | Product List | Glossary On
Versions: 1 2 3 4 5 6 7 8 9 10 11 12 13 14 15 16 17 18 19 20 21 22 23 24 25 26 27 28 29 30 31 32 33 34 35 36 37 38 39 40 41 42 43 44 45 46 47 48 49 50
767
ASUS43 KLMK 232210
RWRKY
KENTUCKY REGIONAL WEATHER ROUNDUP
NATIONAL WEATHER SERVICE LOUISVILLE KY
600 PM EDT TUE MAY 23 2017

NOTE "FAIR" INDICATES FEW OR NO CLOUDS BELOW 12,000 FEET
WITH NO SIGNIFICANT WEATHER AND/OR OBSTRUCTIONS TO VISIBILITY.

KYZ001>023-026-027-061>063-070>075-232300-
WESTERN AND SOUTH CENTRAL KENTUCKY

CITY           SKY/WX    TMP DP  RH WIND       PRES   REMARKS
PADUCAH        CLOUDY    74  51  44 W7        29.67F
HENDERSON      CLOUDY    74  49  41 W7        29.67F
OWENSBORO      CLOUDY    76  48  37 W5        29.67F
HOPKINSVILLE   CLOUDY    74  54  49 NW9       29.67F
BOWLING GREEN  CLOUDY    76  57  51 W8        29.66F
GLASGOW        MOSUNNY   76  54  47 W6        29.66F
$$

KYZ024-025-028>034-038-045-046-053-232300-
NORTH CENTRAL KENTUCKY

CITY           SKY/WX    TMP DP  RH WIND       PRES   REMARKS
LOUISVILLE/SDF CLOUDY    76  52  43 SW6       29.65F
LOUISVILLE/LOU MOSUNNY   76  52  43 SW5       29.66F
FORT KNOX      CLOUDY    75  55  50 CALM      29.65F
$$

KYZ035>037-039>044-047>052-055>060-089>105-232300-
NORTHEAST KENTUCKY

CITY           SKY/WX    TMP DP  RH WIND       PRES   REMARKS
LEXINGTON      CLOUDY    72  59  63 CALM      29.68F
COVINGTON      CLOUDY    73  49  42 S5        29.68F
FRANKFORT      CLOUDY    74  57  55 NE3       29.66F
$$

KYZ054-064>069-076>088-106>120-232300-
SOUTHEAST KENTUCKY

CITY           SKY/WX    TMP DP  RH WIND       PRES   REMARKS
JACKSON        CLOUDY    64  62  93 CALM      29.71S
LONDON         LGT RAIN  65  55  70 S6        29.71R
SOMERSET       CLOUDY    68  55  64 CALM      29.70F
MIDDLESBORO    CLOUDY    67  61  80 CALM      29.69F
MONTICELLO     CLOUDY    68  59  73 SE6       29.70F
$$





USA.gov is the U.S. government's official web portal to all federal, state and local government web resources and services.